This is the latest recevied weather packets stored in our database for station/object N5LSN. If no packets are shown the sender has not sent any weather packets the latest 10 day(s).
| Time | Temp. | Humidity | Pressure | Rain* | Wind** | Luminosity | Snow |
|---|---|---|---|---|---|---|---|
| 1777906701 | 20.56° C | 66% | 1014.8 hPa | 0 mm | - | 682 W/m² | - |
| 1777906396 | 20.56° C | 66% | 1014.9 hPa | 0 mm | - | 665 W/m² | - |
| 1777906093 | 20.56° C | 67% | 1014.8 hPa | 0 mm | - | 650 W/m² | - |
| 1777905789 | 20° C | 68% | 1015.1 hPa | 0 mm | - | 627 W/m² | - |
| 1777905487 | 20° C | 68% | 1014.9 hPa | 0 mm | - | 607 W/m² | - |
| 1777905184 | 20° C | 68% | 1015 hPa | 0 mm | - | 591 W/m² | - |
| 1777904881 | 19.44° C | 71% | 1015.1 hPa | 0 mm | - | 572 W/m² | - |
| 1777904578 | 19.44° C | 71% | 1015 hPa | 0 mm | - | 551 W/m² | - |
| 1777904275 | 19.44° C | 73% | 1015.2 hPa | 0 mm | - | 530 W/m² | - |
| 1777903973 | 18.89° C | 72% | 1014.9 hPa | 0 mm | - | 513 W/m² | - |
| 1777903669 | 18.89° C | 73% | 1015.1 hPa | 0 mm | - | 492 W/m² | - |
| 1777903365 | 18.89° C | 74% | 1015.2 hPa | 0 mm | - | 473 W/m² | - |
| 1777903062 | 18.33° C | 75% | 1014.9 hPa | 0 mm | - | 452 W/m² | - |
| 1777902758 | 17.78° C | 75% | 1014.8 hPa | 0 mm | - | 433 W/m² | - |
| 1777902455 | 17.78° C | 77% | 1015.1 hPa | 0 mm | - | 414 W/m² | - |
| 1777902152 | 17.78° C | 77% | 1015.2 hPa | 0 mm | - | 391 W/m² | - |
| 1777901851 | 17.22° C | 78% | 1015.1 hPa | 0 mm | - | 370 W/m² | - |
| 1777901547 | 17.22° C | 79% | 1015.1 hPa | 0 mm | - | 321 W/m² | - |
| 1777901245 | 16.67° C | 80% | 1015.1 hPa | 0 mm | - | 332 W/m² | - |
| 1777900942 | 16.11° C | 81% | 1015.1 hPa | 0 mm | - | 279 W/m² | - |
| 1777900639 | 16.11° C | 82% | 1015.1 hPa | 0 mm | - | 189 W/m² | - |
| 1777900337 | 15.56° C | 84% | 1015.3 hPa | 0 mm | - | 256 W/m² | - |
| 1777900034 | 15° C | 86% | 1014.9 hPa | 0 mm | - | 118 W/m² | - |
| 1777899729 | 15° C | 87% | 1015.1 hPa | 0 mm | - | 159 W/m² | - |
| 1777899427 | 14.44° C | 87% | 1014.9 hPa | 0 mm | - | 120 W/m² | - |
* Rain latest hour (hover to see other rain measurements)
** Current wind speed in m/s (hover to see current wind gust speed)